Home   Weather   Ilmenau   Past weeks

Flag for Germany Past Weather in Ilmenau, Thuringia, Germany — Yesterday and Last 2 Weeks

Now
25 °F

Snow flurries. Mostly cloudy.


Feels Like: 25 °F
Forecast: 8 / 24 °F
Wind: 1 mph from North

Location: Erfurt-Bindersleben

Current Time: Jan 25, 2017 at 2:53:09 am

Latest Report: Jan 25, 2017 at 2:20 am


Visibility: 4 mi

Pressure: 30.39 "Hg

Humidity: 100%

Dew Point: 25 °F

Location of IlmenauLocation

Past Weather in Ilmenau — Graph

°F

Ilmenau Temperature Yesterday

Maximum temperature yesterday: 27 °F (at 12:50 pm)
Minimum temperature yesterday: 19 °F (at 12:20 am)
Average temperature yesterday: 24 °F

High & Low Weather Summary for the Past Weeks

 TemperatureHumidityPressure
High39 °F (Jan 12, 11:20 am)100% (Jan 12, 10:50 pm)30.69 "Hg (Jan 12, 10:50 pm)
Low10 °F (Jan 22, 11:50 pm)59% (Jan 20, 2:50 pm)29.00 "Hg (Jan 13, 3:50 am)
Average26 °F88%30.14 "Hg
* Reported Jan 10 1:20 am — Jan 25 1:50 am, Ilmenau, Weather by CustomWeather, © 2017

Note: Actual official high and low records may vary slightly from our data, if they occured in-between our weather recording intervals... More about our weather records

Advertising

Ilmenau Weather History for the Previous 24 Hours

Scroll right to see more
 ConditionsComfort  
Time TempWeatherWind HumidityBarometerVisibility
1:50 am
Wed, Jan 25
25 °FIce fog.2 mph100%30.42 "Hg3 mi
1:20 am25 °FIce fog.2 mph100%30.39 "Hg3 mi
12:50 am25 °FSnow flurries. Ice fog.1 mph100%30.42 "Hg3 mi
12:20 am25 °FIce fog.1 mph100%30.42 "Hg3 mi
11:50 pm
Tue, Jan 24
25 °FSnow flurries. Ice fog.3 mph100%30.42 "Hg3 mi
11:20 pm25 °FSnow flurries. Ice fog.2 mph100%30.42 "Hg3 mi
10:50 pm25 °FSnow flurries. Ice fog.No wind100%30.42 "Hg3 mi
10:20 pm25 °FSnow flurries. Ice fog.2 mph100%30.42 "Hg3 mi
9:50 pm25 °FIce fog.1 mph100%30.39 "Hg3 mi
9:20 pm25 °FSnow flurries. Ice fog.2 mph100%30.39 "Hg3 mi
8:50 pm25 °FSnow flurries. Ice fog.2 mph100%30.39 "Hg2 mi
8:20 pm25 °FSnow flurries. Ice fog.1 mph100%30.39 "Hg2 mi
7:50 pm25 °FCold.1 mph100%30.39 "Hg1 mi
7:20 pm25 °FCold.1 mph100%30.39 "Hg2 mi
6:50 pm25 °FLow clouds.1 mph100%30.39 "HgN/A
6:20 pm25 °FSnow flurries. Overcast.1 mph100%30.36 "HgN/A
5:50 pm25 °FLow clouds.2 mph100%30.36 "HgN/A
5:20 pm25 °FSnow flurries. Mostly cloudy.1 mph93%30.36 "HgN/A
4:50 pm25 °FSnow flurries. Ice fog.1 mph100%30.36 "HgN/A
4:20 pm25 °FSnow flurries. Ice fog.1 mph100%30.36 "HgN/A
3:50 pm25 °FSnow flurries. Partly sunny.1 mph100%30.36 "HgN/A
3:20 pm25 °FSnow flurries. Mostly cloudy.1 mph100%30.33 "HgN/A
2:50 pm25 °FSnow flurries. Mostly cloudy.2 mph100%30.33 "HgN/A
2:20 pm27 °FSnow flurries. Partly sunny.2 mph93%30.33 "Hg4 mi
1:50 pm27 °FSnow flurries. Ice fog.1 mph93%30.33 "Hg3 mi
1:20 pm25 °FSnow flurries. Ice fog.3 mph100%30.33 "Hg3 mi
12:50 pm27 °FSnow flurries. Ice fog.2 mph93%30.33 "Hg3 mi
12:20 pm25 °FSnow flurries. Ice fog.1 mph100%30.33 "Hg3 mi
11:50 am25 °FSnow flurries. Ice fog.1 mph100%30.33 "Hg3 mi
11:20 am25 °FSnow flurries. Ice fog.2 mph100%30.33 "Hg2 mi
10:50 am25 °FSnow flurries. Ice fog.2 mph100%30.33 "Hg2 mi
10:20 am25 °FSnow flurries. Ice fog.1 mph93%30.33 "Hg2 mi
9:50 am25 °FSnow flurries. Ice fog.1 mph93%30.30 "Hg2 mi
9:20 am23 °FSnow flurries. Ice fog.2 mph100%30.30 "Hg1 mi
8:50 am23 °FSnow flurries. Ice fog.1 mph100%30.30 "Hg1 mi
8:20 am23 °FSnow flurries. Ice fog.1 mph100%30.30 "Hg2 mi
7:50 am23 °FIce fog.1 mph100%30.27 "Hg2 mi
7:20 am23 °FLight freezing rain. Ice fog.3 mph100%30.27 "Hg2 mi
6:50 am23 °FLight freezing rain. Ice fog.3 mph93%30.27 "Hg2 mi
6:20 am23 °FLight freezing rain. Ice fog.3 mph93%30.27 "Hg2 mi
5:50 am23 °FLight freezing rain. Ice fog.3 mph93%30.24 "Hg2 mi
5:20 am23 °FLight freezing rain. Ice fog.3 mph93%30.24 "Hg2 mi
4:50 am21 °FLight freezing rain. Ice fog.3 mph100%30.24 "Hg2 mi
4:20 am21 °FLight freezing rain. Ice fog.5 mph100%30.24 "Hg2 mi
3:50 am21 °FLight freezing rain. Ice fog.3 mph100%30.24 "Hg1 mi
3:20 am21 °FLight freezing rain. Ice fog.3 mph100%30.24 "Hg1 mi
2:50 am21 °FLight freezing rain. Ice fog.5 mph93%30.24 "Hg1 mi
2:20 am19 °FLight freezing rain. Ice fog.5 mph100%30.24 "Hg1 mi
Weather by CustomWeather, © 2017

See weather overviewHow to use our weather pages